Regional Weather Roundup
Issued by NWS Upton, NY

Current Version | Previous Version | Text Only | Print | Product List | Glossary Off
Versions: 1 2 3 4 5 6 7 8 9 10 11 12 13 14 15 16 17 18 19 20 21 22 23 24 25 26 27 28 29 30 31 32 33 34 35 36 37 38 39 40 41 42 43 44 45 46 47 48 49 50
000 ASUS41 KOKX 190305 RWROKX REGIONAL WEATHER ROUNDUP NATIONAL WEATHER SERVICE NEW YORK NY 1100 PM EDT THU SEP 18 2014 NOTE: "FAIR" INDICATES FEW OR NO CLOUDS BELOW 12,000 FEET WITH NO SIGNIFICANT WEATHER AND/OR OBSTRUCTIONS TO VISIBILITY. NYZ071-072-176-178-NJZ106-104-190400- NEW YORK CITY METRO AREA CITY SKY/WX TMP DP RH WIND PRES REMARKS CENTRAL PARK CLEAR 67 45 45 VRB3 30.11R LAGUARDIA APRT PTCLDY 68 50 52 N10 30.08R KENNEDY INTL PTCLDY 63 55 75 CALM 30.08R NEWARK/LIBERTY PTCLDY 67 46 47 N12 30.08R BRNX BOT. GARD N/A 63 48 59 N10 30.10S TETERBORO CLEAR 62 47 57 N3 30.08R $$ NYZ177-179-078>081-190400- LONG ISLAND NEW YORK CITY SKY/WX TMP DP RH WIND PRES REMARKS FARMINGDALE CLEAR 61 53 75 N5 30.08R ISLIP PTCLDY 60 54 80 N3 30.07R SHIRLEY CLEAR 58 53 84 CALM 30.09R WESTHAMPTON CLEAR 48 42 80 NW5 30.09R MONTAUK POINT N/A 66 54 65 N8 30.08R $$ NYZ052-065-067-190400- HUDSON VALLEY CITY SKY/WX TMP DP RH WIND PRES REMARKS WHITE PLAINS CLEAR 60 49 66 N12 30.09R NEWBURGH MOCLDY 63 52 67 E14 30.13R MONTGOMERY MOCLDY 57 51 80 NE8 30.12R POUGHKEEPSIE CLOUDY 60 50 69 N5 30.12R ALBANY MOCLDY 52 41 66 N13 30.18R $$ NJZ001-105-106-008-010-013-015-019>022-104-190400- NEW JERSEY CITY SKY/WX TMP DP RH WIND PRES REMARKS NEWARK/LIBERTY PTCLDY 67 46 47 N12 30.08R TETERBORO CLEAR 62 47 57 N3 30.08R CALDWELL CLEAR 55 48 77 CALM 30.10R MORRISTOWN CLEAR 50 46 87 CALM 30.10R SOMERVILLE NOT AVBL LINDEN FAIR 67 51 54 CALM 30.09R SUSSEX MOCLDY 52 48 86 CALM 30.12R ANDOVER N/A 50 49 96 CALM 30.12R TRENTON CLEAR 58 50 75 CALM 30.08R MILLVILLE CLEAR 55 54 96 CALM 30.09R ATLANTIC CITY CLEAR 56 54 93 CALM 30.09R WRIGHTSTOWN MOCLDY 58 56 93 SW2 30.07R TOMS RIVER PTCLDY 54 52 94 CALM 30.09R BELMAR PTCLDY 61 52 72 SW6 30.08R $$ PAZ047>061-062-071-190400- EASTERN PENNSYLVANIA CITY SKY/WX TMP DP RH WIND PRES REMARKS PHILADELPHIA PTCLDY 65 56 72 W6 30.09R ALLENTOWN PTCLDY 58 46 64 NW3 30.11R SCRANTON CLOUDY 58 48 69 N10 30.16R $$ CTZ002-004>006-009-010-012-RIZ004-006-007-MAZ004-011-015-190400- SOUTHERN NEW ENGLAND IN CT CITY SKY/WX TMP DP RH WIND PRES REMARKS BRADLEY INTL PTCLDY 58 47 66 N10 30.12R HARTFORD CLEAR 58 50 75 VRB6 30.11R DANBURY CLEAR 54 49 83 CALM 30.12R WTRBRY/OXFORD PTCLDY 57 46 67 N8 30.12R BRIDGEPORT CLEAR 62 50 64 N8 30.08R MERIDEN CLEAR 53 48 83 CALM 30.10R NEW HAVEN CLEAR 61 49 64 N8 30.09R CHESTER FAIR 59 50 72 N5 30.10R GROTON CLEAR 59 51 75 N9 30.07R WILLIMANTIC CLEAR 55 50 83 N6 30.11R IN RI CITY SKY/WX TMP DP RH WIND PRES REMARKS PROVIDENCE MOCLDY 63 49 60 N13 30.10R BLOCK ISLAND MOCLDY 63 52 67 N7 30.07R WESTERLY PTCLDY 55 50 83 N3 30.08R IN MA CITY SKY/WX TMP DP RH WIND PRES REMARKS BOSTON MOCLDY 59 43 55 NW12 30.13R WORCESTER CLEAR 52 47 83 NE7 30.13R WESTFIELD PTCLDY 56 48 74 N8 30.13R PROVINCETOWN CLOUDY 63 52 67 N18G26 30.10R NANTUCKET PTCLDY 54 47 77 CALM 30.06R $$ ANZ330-335-338-340-345-350-353-355-190400- COASTAL MARINE OBSERVATIONS STATION/POSITION TIME SKY/WX TEMP WIND PRES VSBY WAVE AIR SEA DIR/SP/G HT/PER (UTC) (F) (DEG/KT/KT) (MB) (MI) (FT/S) NY HARB ENTRANCE 0300 69 70 240/ 10/ 12 1018.5 2/11 4S FIRE IS 0300 71 N/A 2/12 23SW MTP 0300 N/A 2/10 HUDSON CANYON 0300 69 72 330/ 4/ 6 1018.3 3/11 EXECUTION ROCKS 0300 67 71 20/ 12/ 17 N/A WESTERN LI SOUND 0300 65 20/ 8/ 10 N/A 0 CENTRAL LI SOUND 0200 67 71 10/ 14/ 17 N/A 1 EASTERN LI SOUND 0200 64 68 360/ 12/ 14 N/A ROBBINS REEF 0300 69 350/ 9/ 13 1017.1 $$ >>>>>>>>>>>>>>>>>>>>>>>>>>>> KEY <<<<<<<<<<<<<<<<<<<<<<<<<<< > < > SKY/WX - SKY CONDITION/PRESENT WEATHER < > TMP - TEMPERATURE IN FAHRENHEIT < > DP - DEWPOINT IN FAHRENHEIT < > RH - RELATIVE HUMIDITY IN PERCENT < > WIND - DIRECTION AND SPEED IN MPH < > PRES - MEAN SEA LEVEL PRESSURE IN INCHES OF HG < > WCI - WIND CHILL INDEX < > VSB - VISIBILITY IN MILES < > HX - HEAT INDEX < > TC - TEMPERATURE IN CELSIUS < > VRB - VARIABLE WIND DIRECTION < > < >>>>>>>>>>>>>>>>>>>>>>>>>>>> KEY <<<<<<<<<<<<<<<<<<<<<<<<<<<

USA.gov is the U.S. government's official web portal to all federal, state and local government web resources and services.